This is the latest recevied weather packets stored in our database for station/object JH4GLG-13. If no packets are shown the sender has not sent any weather packets the latest 10 day(s).
| Time | Temp. | Humidity | Pressure | Rain* | Wind** | Luminosity | Snow |
|---|---|---|---|---|---|---|---|
| 1777443925 | 21.67° C | 52% | 1015.5 hPa | 0 mm | - | - | - |
| 1777443023 | 21.67° C | 51% | 1015.7 hPa | 0 mm | - | - | - |
| 1777442124 | 21.11° C | 54% | 1015.7 hPa | 0 mm | - | - | - |
| 1777441223 | 20.56° C | 55% | 1015.9 hPa | 0 mm | - | - | - |
| 1777440324 | 20.56° C | 56% | 1015.9 hPa | 0 mm | - | - | - |
| 1777439423 | 20° C | 57% | 1016.1 hPa | 0 mm | - | - | - |
| 1777438524 | 20° C | 57% | 1016.2 hPa | 0 mm | - | - | - |
| 1777437622 | 20.56° C | 57% | 1016.3 hPa | 0 mm | - | - | - |
| 1777436723 | 20° C | 56% | 1016.2 hPa | 0 mm | - | - | - |
| 1777435822 | 20.56° C | 56% | 1016.2 hPa | 0 mm | - | - | - |
| 1777434923 | 20.56° C | 55% | 1016.2 hPa | 0 mm | - | - | - |
| 1777434022 | 21.11° C | 55% | 1016.3 hPa | 0 mm | - | - | - |
| 1777433123 | 20.56° C | 55% | 1016.2 hPa | 0 mm | - | - | - |
| 1777432221 | 21.11° C | 55% | 1016.3 hPa | 0 mm | - | - | - |
| 1777431323 | 21.11° C | 54% | 1016.6 hPa | 0 mm | - | - | - |
| 1777430422 | 21.11° C | 55% | 1016.5 hPa | 0 mm | - | - | - |
| 1777429523 | 20.56° C | 55% | 1016.5 hPa | 0 mm | - | - | - |
| 1777428622 | 21.11° C | 56% | 1016.5 hPa | 0 mm | - | - | - |
| 1777427723 | 21.11° C | 56% | 1016.6 hPa | 0 mm | - | - | - |
| 1777426821 | 20.56° C | 58% | 1016.6 hPa | 0 mm | - | - | - |
| 1777425922 | 20° C | 59% | 1016.7 hPa | 0 mm | - | - | - |
| 1777425021 | 20° C | 59% | 1016.7 hPa | 0 mm | - | - | - |
| 1777424122 | 20° C | 58% | 1016.5 hPa | 0 mm | - | - | - |
| 1777423221 | 20° C | 59% | 1016.4 hPa | 0 mm | - | - | - |
| 1777422326 | 19.44° C | 58% | 1016.3 hPa | 0 mm | - | - | - |
* Rain latest hour (hover to see other rain measurements)
** Current wind speed in m/s (hover to see current wind gust speed)